Year,Month,Day,Hour,Minute,Value (Times are PST for windgust in km/hr)
2010,04,02,00,00,29.00
2010,04,02,00,01,37.00
2010,04,02,00,02,33.80
2010,04,02,00,03,40.20
2010,04,02,00,04,37.00
2010,04,02,00,05,35.40
2010,04,02,00,06,37.00
2010,04,02,00,07,45.10
2010,04,02,00,08,43.50
2010,04,02,00,09,35.40
2010,04,02,00,10,30.60
2010,04,02,00,11,35.40
2010,04,02,00,12,33.80
2010,04,02,00,13,38.60
2010,04,02,00,14,37.00
2010,04,02,00,15,29.00
2010,04,02,00,16,37.00
2010,04,02,00,17,35.40
2010,04,02,00,18,35.40
2010,04,02,00,19,32.20
2010,04,02,00,20,24.20
2010,04,02,00,21,32.20
2010,04,02,00,22,25.70
2010,04,02,00,23,24.20
2010,04,02,00,24,45.10
2010,04,02,00,25,24.20
2010,04,02,00,26,37.00
2010,04,02,00,27,38.60
2010,04,02,00,28,46.70
2010,04,02,00,29,51.50
2010,04,02,00,30,43.50
2010,04,02,00,31,41.80
2010,04,02,00,32,38.60
2010,04,02,00,33,40.20
2010,04,02,00,34,38.60
2010,04,02,00,35,41.80
2010,04,02,00,36,35.40
2010,04,02,00,37,37.00
2010,04,02,00,38,41.80
2010,04,02,00,39,30.60
2010,04,02,00,40,41.80
2010,04,02,00,41,29.00
2010,04,02,00,42,49.90
2010,04,02,00,43,30.60
2010,04,02,00,44,41.80
2010,04,02,00,45,32.20
2010,04,02,00,46,32.20
2010,04,02,00,47,33.80
2010,04,02,00,48,27.40
2010,04,02,00,49,27.40
2010,04,02,00,50,30.60
2010,04,02,00,51,40.20
2010,04,02,00,52,33.80
2010,04,02,00,53,46.70
2010,04,02,00,54,32.20
2010,04,02,00,55,38.60
2010,04,02,00,56,38.60
2010,04,02,00,57,53.10
2010,04,02,00,58,37.00
2010,04,02,00,59,38.60
2010,04,02,01,00,33.80
2010,04,02,01,01,38.60
2010,04,02,01,02,40.20
2010,04,02,01,03,30.60
2010,04,02,01,04,32.20
2010,04,02,01,05,35.40
2010,04,02,01,06,40.20
2010,04,02,01,07,29.00
2010,04,02,01,08,27.40
2010,04,02,01,09,29.00
2010,04,02,01,10,40.20
2010,04,02,01,11,40.20
2010,04,02,01,12,35.40
2010,04,02,01,13,29.00
2010,04,02,01,14,30.60
2010,04,02,01,15,43.50
2010,04,02,01,16,40.20
2010,04,02,01,17,25.70
2010,04,02,01,18,37.00
2010,04,02,01,19,40.20
2010,04,02,01,20,32.20
2010,04,02,01,21,29.00
2010,04,02,01,22,33.80
2010,04,02,01,23,46.70
2010,04,02,01,24,48.30
2010,04,02,01,25,48.30
2010,04,02,01,26,40.20
2010,04,02,01,27,51.50
2010,04,02,01,28,43.50
2010,04,02,01,29,35.40
2010,04,02,01,30,43.50
2010,04,02,01,31,35.40
2010,04,02,01,32,32.20
2010,04,02,01,33,46.70
2010,04,02,01,34,41.80
2010,04,02,01,35,35.40
2010,04,02,01,36,40.20
2010,04,02,01,37,43.50
2010,04,02,01,38,46.70
2010,04,02,01,39,38.60
2010,04,02,01,40,48.30
2010,04,02,01,41,35.40
2010,04,02,01,42,33.80
2010,04,02,01,43,37.00
2010,04,02,01,44,37.00
2010,04,02,01,45,35.40
2010,04,02,01,46,35.40
2010,04,02,01,47,40.20
2010,04,02,01,48,40.20
2010,04,02,01,49,35.40
2010,04,02,01,50,37.00
2010,04,02,01,51,40.20
2010,04,02,01,52,49.90
2010,04,02,01,53,41.80
2010,04,02,01,54,38.60
2010,04,02,01,55,49.90
2010,04,02,01,56,38.60
2010,04,02,01,57,43.50
2010,04,02,01,58,40.20
2010,04,02,01,59,37.00
2010,04,02,02,00,41.80
2010,04,02,02,01,38.60
2010,04,02,02,02,37.00
2010,04,02,02,03,32.20
2010,04,02,02,04,30.60
2010,04,02,02,05,43.50
2010,04,02,02,06,43.50
2010,04,02,02,07,40.20
2010,04,02,02,08,43.50
2010,04,02,02,09,22.50
2010,04,02,02,10,37.00
2010,04,02,02,11,35.40
2010,04,02,02,12,43.50
2010,04,02,02,13,33.80
2010,04,02,02,14,38.60
2010,04,02,02,15,38.60
2010,04,02,02,16,40.20
2010,04,02,02,17,25.70
2010,04,02,02,18,35.40
2010,04,02,02,19,33.80
2010,04,02,02,20,43.50
2010,04,02,02,21,40.20
2010,04,02,02,22,32.20
2010,04,02,02,23,38.60
2010,04,02,02,24,49.90
2010,04,02,02,25,45.10
2010,04,02,02,26,51.50
2010,04,02,02,27,49.90
2010,04,02,02,28,45.10
2010,04,02,02,29,40.20
2010,04,02,02,30,37.00
2010,04,02,02,31,41.80
2010,04,02,02,32,32.20
2010,04,02,02,33,32.20
2010,04,02,02,34,54.70
2010,04,02,02,35,51.50
2010,04,02,02,36,35.40
2010,04,02,02,37,45.10
2010,04,02,02,38,29.00
2010,04,02,02,39,32.20
2010,04,02,02,40,24.20
2010,04,02,02,41,29.00
2010,04,02,02,42,35.40
2010,04,02,02,43,48.30
2010,04,02,02,44,48.30
2010,04,02,02,45,35.40
2010,04,02,02,46,35.40
2010,04,02,02,47,51.50
2010,04,02,02,48,48.30
2010,04,02,02,49,45.10
2010,04,02,02,50,41.80
2010,04,02,02,51,32.20
2010,04,02,02,52,41.80
2010,04,02,02,53,38.60
2010,04,02,02,54,43.50
2010,04,02,02,55,45.10
2010,04,02,02,56,43.50
2010,04,02,02,57,41.80
2010,04,02,02,58,41.80
2010,04,02,02,59,45.10
2010,04,02,03,00,35.40
2010,04,02,03,01,38.60
2010,04,02,03,02,38.60
2010,04,02,03,03,37.00
2010,04,02,03,04,40.20
2010,04,02,03,05,32.20
2010,04,02,03,06,38.60
2010,04,02,03,07,29.00
2010,04,02,03,08,49.90
2010,04,02,03,09,27.40
2010,04,02,03,10,37.00
2010,04,02,03,11,37.00
2010,04,02,03,12,37.00
2010,04,02,03,13,38.60
2010,04,02,03,14,41.80
2010,04,02,03,15,33.80
2010,04,02,03,16,38.60
2010,04,02,03,17,30.60
2010,04,02,03,18,29.00
2010,04,02,03,19,32.20
2010,04,02,03,20,38.60
2010,04,02,03,21,35.40
2010,04,02,03,22,27.40
2010,04,02,03,23,27.40
2010,04,02,03,24,25.70
2010,04,02,03,25,35.40
2010,04,02,03,26,24.20
2010,04,02,03,27,35.40
2010,04,02,03,28,35.40
2010,04,02,03,29,37.00
2010,04,02,03,30,35.40
2010,04,02,03,31,37.00
2010,04,02,03,32,33.80
2010,04,02,03,33,40.20
2010,04,02,03,34,29.00
2010,04,02,03,35,32.20
2010,04,02,03,36,27.40
2010,04,02,03,37,27.40
2010,04,02,03,38,22.50
2010,04,02,03,39,35.40
2010,04,02,03,40,19.30
2010,04,02,03,41,35.40
2010,04,02,03,42,33.80
2010,04,02,03,43,33.80
2010,04,02,03,44,27.40
2010,04,02,03,45,30.60
2010,04,02,03,46,16.10
2010,04,02,03,47,24.20
2010,04,02,03,48,20.90
2010,04,02,03,49,24.20
2010,04,02,03,50,20.90
2010,04,02,03,51,20.90
2010,04,02,03,52,25.70
2010,04,02,03,53,35.40
2010,04,02,03,54,24.20
2010,04,02,03,55,20.90
2010,04,02,03,56,24.20
2010,04,02,03,57,29.00
2010,04,02,03,58,20.90
2010,04,02,03,59,19.30
2010,04,02,04,00,19.30
2010,04,02,04,01,29.00
2010,04,02,04,02,22.50
2010,04,02,04,03,24.20
2010,04,02,04,04,20.90
2010,04,02,04,05,22.50
2010,04,02,04,06,20.90
2010,04,02,04,07,19.30
2010,04,02,04,08,16.10
2010,04,02,04,09,24.20
2010,04,02,04,10,9.60
2010,04,02,04,11,19.30
2010,04,02,04,12,24.20
2010,04,02,04,13,19.30
2010,04,02,04,14,17.70
2010,04,02,04,15,17.70
2010,04,02,04,16,16.10
2010,04,02,04,17,22.50
2010,04,02,04,18,19.30
2010,04,02,04,19,16.10
2010,04,02,04,20,12.90
2010,04,02,04,21,14.50
2010,04,02,04,22,11.30
2010,04,02,04,23,17.70
2010,04,02,04,24,20.90
2010,04,02,04,25,20.90
2010,04,02,04,26,14.50
2010,04,02,04,27,27.40
2010,04,02,04,28,24.20
2010,04,02,04,29,24.20
2010,04,02,04,30,32.20
2010,04,02,04,31,32.20
2010,04,02,04,32,25.70
2010,04,02,04,33,37.00
2010,04,02,04,34,25.70
2010,04,02,04,35,29.00
2010,04,02,04,36,33.80
2010,04,02,04,37,22.50
2010,04,02,04,38,30.60
2010,04,02,04,39,30.60
2010,04,02,04,40,30.60
2010,04,02,04,41,25.70
2010,04,02,04,42,24.20
2010,04,02,04,43,32.20
2010,04,02,04,44,41.80
2010,04,02,04,45,43.50
2010,04,02,04,46,33.80
2010,04,02,04,47,27.40
2010,04,02,04,48,33.80
2010,04,02,04,49,37.00
2010,04,02,04,50,45.10
2010,04,02,04,51,43.50
2010,04,02,04,52,32.20
2010,04,02,04,53,33.80
2010,04,02,04,54,48.30
2010,04,02,04,55,38.60
2010,04,02,04,56,37.00
2010,04,02,04,57,45.10
2010,04,02,04,58,29.00
2010,04,02,04,59,27.40
2010,04,02,05,00,33.80
2010,04,02,05,01,33.80
2010,04,02,05,02,38.60
2010,04,02,05,03,37.00
2010,04,02,05,04,40.20
2010,04,02,05,05,43.50
2010,04,02,05,06,35.40
2010,04,02,05,07,40.20
2010,04,02,05,08,41.80
2010,04,02,05,09,35.40
2010,04,02,05,10,51.50
2010,04,02,05,11,38.60
2010,04,02,05,12,40.20
2010,04,02,05,13,41.80
2010,04,02,05,14,33.80
2010,04,02,05,15,46.70
2010,04,02,05,16,38.60
2010,04,02,05,17,41.80
2010,04,02,05,18,48.30
2010,04,02,05,19,38.60
2010,04,02,05,20,37.00
2010,04,02,05,21,32.20
2010,04,02,05,22,29.00
2010,04,02,05,23,49.90
2010,04,02,05,24,33.80
2010,04,02,05,25,38.60
2010,04,02,05,26,35.40
2010,04,02,05,27,30.60
2010,04,02,05,28,37.00
2010,04,02,05,29,46.70
2010,04,02,05,30,35.40
2010,04,02,05,31,33.80
2010,04,02,05,32,51.50
2010,04,02,05,33,41.80
2010,04,02,05,34,37.00
2010,04,02,05,35,32.20
2010,04,02,05,36,45.10
2010,04,02,05,37,37.00
2010,04,02,05,38,43.50
2010,04,02,05,39,48.30
2010,04,02,05,40,56.30
2010,04,02,05,41,45.10
2010,04,02,05,42,43.50
2010,04,02,05,43,30.60
2010,04,02,05,44,33.80
2010,04,02,05,45,37.00
2010,04,02,05,46,41.80
2010,04,02,05,47,27.40
2010,04,02,05,48,41.80
2010,04,02,05,49,37.00
2010,04,02,05,50,45.10
2010,04,02,05,51,45.10
2010,04,02,05,52,54.70
2010,04,02,05,53,40.20
2010,04,02,05,54,40.20
2010,04,02,05,55,37.00
2010,04,02,05,56,40.20
2010,04,02,05,57,54.70
2010,04,02,05,58,53.10
2010,04,02,05,59,48.30
2010,04,02,06,00,46.70
2010,04,02,06,01,41.80
2010,04,02,06,02,40.20
2010,04,02,06,03,56.30
2010,04,02,06,04,51.50
2010,04,02,06,05,61.20
2010,04,02,06,06,45.10
2010,04,02,06,07,53.10
2010,04,02,06,08,57.90
2010,04,02,06,09,56.30
2010,04,02,06,10,48.30
2010,04,02,06,11,64.40
2010,04,02,06,12,48.30
2010,04,02,06,13,64.40
2010,04,02,06,14,53.10
2010,04,02,06,15,49.90
2010,04,02,06,16,56.30
2010,04,02,06,17,49.90
2010,04,02,06,18,64.40
2010,04,02,06,19,57.90
2010,04,02,06,20,56.30
2010,04,02,06,21,56.30
2010,04,02,06,22,62.70
2010,04,02,06,23,64.40
2010,04,02,06,24,61.20
2010,04,02,06,25,70.80
2010,04,02,06,26,54.70
2010,04,02,06,27,53.10
2010,04,02,06,28,57.90
2010,04,02,06,29,48.30
2010,04,02,06,30,53.10
2010,04,02,06,31,46.70
2010,04,02,06,32,53.10
2010,04,02,06,33,54.70
2010,04,02,06,34,56.30
2010,04,02,06,35,57.90
2010,04,02,06,36,56.30
2010,04,02,06,37,53.10
2010,04,02,06,38,46.70
2010,04,02,06,39,53.10
2010,04,02,06,40,70.80
2010,04,02,06,41,48.30
2010,04,02,06,42,61.20
2010,04,02,06,43,45.10
2010,04,02,06,44,37.00
2010,04,02,06,45,38.60
2010,04,02,06,46,43.50
2010,04,02,06,47,64.40
2010,04,02,06,48,62.70
2010,04,02,06,49,54.70
2010,04,02,06,50,48.30
2010,04,02,06,51,61.20
2010,04,02,06,52,57.90
2010,04,02,06,53,54.70
2010,04,02,06,54,66.00
2010,04,02,06,55,64.40
2010,04,02,06,56,51.50
2010,04,02,06,57,57.90
2010,04,02,06,58,49.90
2010,04,02,06,59,49.90
2010,04,02,07,00,40.20
2010,04,02,07,01,61.20
2010,04,02,07,02,49.90
2010,04,02,07,03,43.50
2010,04,02,07,04,51.50
2010,04,02,07,05,57.90
2010,04,02,07,06,41.80
2010,04,02,07,07,56.30
2010,04,02,07,08,62.70
2010,04,02,07,09,48.30
2010,04,02,07,10,62.70
2010,04,02,07,11,62.70
2010,04,02,07,12,61.20
2010,04,02,07,13,64.40
2010,04,02,07,14,62.70
2010,04,02,07,15,56.30
2010,04,02,07,16,49.90
2010,04,02,07,17,49.90
2010,04,02,07,18,41.80
2010,04,02,07,19,46.70
2010,04,02,07,20,53.10
2010,04,02,07,21,53.10
2010,04,02,07,22,48.30
2010,04,02,07,23,53.10
2010,04,02,07,24,64.40
2010,04,02,07,25,53.10
2010,04,02,07,26,53.10
2010,04,02,07,27,56.30
2010,04,02,07,28,45.10
2010,04,02,07,29,51.50
2010,04,02,07,30,53.10
2010,04,02,07,31,54.70
2010,04,02,07,32,53.10
2010,04,02,07,33,64.40
2010,04,02,07,34,54.70
2010,04,02,07,35,59.50
2010,04,02,07,36,51.50
2010,04,02,07,37,32.20
2010,04,02,07,38,38.60
2010,04,02,07,39,45.10
2010,04,02,07,40,49.90
2010,04,02,07,41,64.40
2010,04,02,07,42,41.80
2010,04,02,07,43,48.30
2010,04,02,07,44,43.50
2010,04,02,07,45,46.70
2010,04,02,07,46,49.90
2010,04,02,07,47,48.30
2010,04,02,07,48,35.40
2010,04,02,07,49,29.00
2010,04,02,07,50,32.20
2010,04,02,07,51,51.50
2010,04,02,07,52,49.90
2010,04,02,07,53,56.30
2010,04,02,07,54,49.90
2010,04,02,07,55,57.90
2010,04,02,07,56,49.90
2010,04,02,07,57,56.30
2010,04,02,07,58,51.50
2010,04,02,07,59,49.90
2010,04,02,08,00,53.10
2010,04,02,08,01,56.30
2010,04,02,08,02,54.70
2010,04,02,08,03,62.70
2010,04,02,08,04,53.10
2010,04,02,08,05,40.20
2010,04,02,08,06,53.10
2010,04,02,08,07,51.50
2010,04,02,08,08,70.80
2010,04,02,08,09,59.50
2010,04,02,08,10,53.10
2010,04,02,08,11,72.40
2010,04,02,08,12,54.70
2010,04,02,08,13,56.30
2010,04,02,08,14,69.20
2010,04,02,08,15,69.20
2010,04,02,08,16,59.50
2010,04,02,08,17,64.40
2010,04,02,08,18,59.50
2010,04,02,08,19,59.50
2010,04,02,08,20,54.70
2010,04,02,08,21,53.10
2010,04,02,08,22,61.20
2010,04,02,08,23,51.50
2010,04,02,08,24,46.70
2010,04,02,08,25,56.30
2010,04,02,08,26,48.30
2010,04,02,08,27,61.20
2010,04,02,08,28,45.10
2010,04,02,08,29,53.10
2010,04,02,08,30,53.10
2010,04,02,08,31,49.90
2010,04,02,08,32,57.90
2010,04,02,08,33,46.70
2010,04,02,08,34,66.00
2010,04,02,08,35,59.50
2010,04,02,08,36,53.10
2010,04,02,08,37,37.00
2010,04,02,08,38,43.50
2010,04,02,08,39,61.20
2010,04,02,08,40,46.70
2010,04,02,08,41,49.90
2010,04,02,08,42,43.50
2010,04,02,08,43,43.50
2010,04,02,08,44,51.50
2010,04,02,08,45,45.10
2010,04,02,08,46,43.50
2010,04,02,08,47,32.20
2010,04,02,08,48,49.90
2010,04,02,08,49,53.10
2010,04,02,08,50,51.50
2010,04,02,08,51,46.70
2010,04,02,08,52,45.10
2010,04,02,08,53,41.80
2010,04,02,08,54,56.30
2010,04,02,08,55,43.50
2010,04,02,08,56,46.70
2010,04,02,08,57,35.40
2010,04,02,08,58,49.90
2010,04,02,08,59,37.00
2010,04,02,09,00,45.10
2010,04,02,09,01,51.50
2010,04,02,09,02,57.90
2010,04,02,09,03,49.90
2010,04,02,09,04,53.10
2010,04,02,09,05,43.50
2010,04,02,09,06,53.10
2010,04,02,09,07,62.70
2010,04,02,09,08,45.10
2010,04,02,09,09,53.10
2010,04,02,09,10,53.10
2010,04,02,09,11,54.70
2010,04,02,09,12,56.30
2010,04,02,09,13,51.50
2010,04,02,09,14,38.60
2010,04,02,09,15,43.50
2010,04,02,09,16,45.10
2010,04,02,09,17,46.70
2010,04,02,09,18,46.70
2010,04,02,09,19,56.30
2010,04,02,09,20,43.50
2010,04,02,09,21,48.30
2010,04,02,09,22,37.00
2010,04,02,09,23,37.00
2010,04,02,09,24,53.10
2010,04,02,09,25,45.10
2010,04,02,09,26,51.50
2010,04,02,09,27,46.70
2010,04,02,09,28,43.50
2010,04,02,09,29,40.20
2010,04,02,09,30,37.00
2010,04,02,09,31,46.70
2010,04,02,09,32,57.90
2010,04,02,09,33,62.70
2010,04,02,09,34,53.10
2010,04,02,09,35,57.90
2010,04,02,09,36,49.90
2010,04,02,09,37,41.80
2010,04,02,09,38,40.20
2010,04,02,09,39,38.60
2010,04,02,09,40,53.10
2010,04,02,09,41,53.10
2010,04,02,09,42,48.30
2010,04,02,09,43,59.50
2010,04,02,09,44,48.30
2010,04,02,09,45,45.10
2010,04,02,09,46,49.90
2010,04,02,09,47,64.40
2010,04,02,09,48,59.50
2010,04,02,09,49,64.40
2010,04,02,09,50,56.30
2010,04,02,09,51,54.70
2010,04,02,09,52,48.30
2010,04,02,09,53,56.30
2010,04,02,09,54,41.80
2010,04,02,09,55,62.70
2010,04,02,09,56,49.90
2010,04,02,09,57,46.70
2010,04,02,09,58,56.30
2010,04,02,09,59,59.50
2010,04,02,10,00,53.10
2010,04,02,10,01,51.50
2010,04,02,10,02,56.30
2010,04,02,10,03,48.30
2010,04,02,10,04,49.90
2010,04,02,10,05,62.70
2010,04,02,10,06,51.50
2010,04,02,10,07,64.40
2010,04,02,10,08,45.10
2010,04,02,10,09,46.70
2010,04,02,10,10,56.30
2010,04,02,10,11,54.70
2010,04,02,10,12,46.70
2010,04,02,10,13,53.10
2010,04,02,10,14,51.50
2010,04,02,10,15,59.50
2010,04,02,10,16,64.40
2010,04,02,10,17,53.10
2010,04,02,10,18,72.40
2010,04,02,10,19,74.00
2010,04,02,10,20,62.70
2010,04,02,10,21,56.30
2010,04,02,10,22,54.70
2010,04,02,10,23,57.90
2010,04,02,10,24,69.20
2010,04,02,10,25,64.40
2010,04,02,10,26,59.50
2010,04,02,10,27,48.30
2010,04,02,10,28,59.50
2010,04,02,10,29,59.50
2010,04,02,10,30,51.50
2010,04,02,10,31,61.20
2010,04,02,10,32,62.70
2010,04,02,10,33,49.90
2010,04,02,10,34,56.30
2010,04,02,10,35,66.00
2010,04,02,10,36,46.70
2010,04,02,10,37,59.50
2010,04,02,10,38,74.00
2010,04,02,10,39,61.20
2010,04,02,10,40,62.70
2010,04,02,10,41,57.90
2010,04,02,10,42,49.90
2010,04,02,10,43,61.20
2010,04,02,10,44,54.70
2010,04,02,10,45,54.70
2010,04,02,10,46,72.40
2010,04,02,10,47,69.20
2010,04,02,10,48,57.90
2010,04,02,10,49,62.70
2010,04,02,10,50,51.50
2010,04,02,10,51,46.70
2010,04,02,10,52,61.20
2010,04,02,10,53,49.90
2010,04,02,10,54,41.80
2010,04,02,10,55,45.10
2010,04,02,10,56,54.70
2010,04,02,10,57,46.70
2010,04,02,10,58,48.30
2010,04,02,10,59,48.30
2010,04,02,11,00,64.40
2010,04,02,11,01,48.30
2010,04,02,11,02,53.10
2010,04,02,11,03,64.40
2010,04,02,11,04,61.20
2010,04,02,11,05,49.90
2010,04,02,11,06,51.50
2010,04,02,11,07,64.40
2010,04,02,11,08,51.50
2010,04,02,11,09,41.80
2010,04,02,11,10,56.30
2010,04,02,11,11,72.40
2010,04,02,11,12,62.70
2010,04,02,11,13,45.10
2010,04,02,11,14,41.80
2010,04,02,11,15,53.10
2010,04,02,11,16,54.70
2010,04,02,11,17,57.90
2010,04,02,11,18,62.70
2010,04,02,11,19,48.30
2010,04,02,11,20,53.10
2010,04,02,11,21,49.90
2010,04,02,11,22,49.90
2010,04,02,11,23,56.30
2010,04,02,11,24,54.70
2010,04,02,11,25,57.90
2010,04,02,11,26,54.70
2010,04,02,11,27,62.70
2010,04,02,11,28,33.80
2010,04,02,11,29,51.50
2010,04,02,11,30,61.20
2010,04,02,11,31,57.90
2010,04,02,11,32,64.40
2010,04,02,11,33,43.50
2010,04,02,11,34,35.40
2010,04,02,11,35,45.10
2010,04,02,11,36,41.80
2010,04,02,11,37,43.50
2010,04,02,11,38,48.30
2010,04,02,11,39,61.20
2010,04,02,11,40,54.70
2010,04,02,11,41,53.10
2010,04,02,11,42,46.70
2010,04,02,11,43,53.10
2010,04,02,11,44,57.90
2010,04,02,11,45,40.20
2010,04,02,11,46,61.20
2010,04,02,11,47,51.50
2010,04,02,11,48,51.50
2010,04,02,11,49,46.70
2010,04,02,11,50,53.10
2010,04,02,11,51,49.90
2010,04,02,11,52,41.80
2010,04,02,11,53,53.10
2010,04,02,11,54,57.90
2010,04,02,11,55,53.10
2010,04,02,11,56,70.80
2010,04,02,11,57,51.50
2010,04,02,11,58,56.30
2010,04,02,11,59,53.10
2010,04,02,12,00,53.10
2010,04,02,12,01,46.70
2010,04,02,12,02,41.80
2010,04,02,12,03,56.30
2010,04,02,12,04,54.70
2010,04,02,12,05,69.20
2010,04,02,12,06,59.50
2010,04,02,12,07,49.90
2010,04,02,12,08,57.90
2010,04,02,12,09,53.10
2010,04,02,12,10,48.30
2010,04,02,12,11,56.30
2010,04,02,12,12,53.10
2010,04,02,12,13,74.00
2010,04,02,12,14,49.90
2010,04,02,12,15,56.30
2010,04,02,12,16,45.10
2010,04,02,12,17,53.10
2010,04,02,12,18,57.90
2010,04,02,12,19,38.60
2010,04,02,12,20,48.30
2010,04,02,12,21,59.50
2010,04,02,12,22,62.70
2010,04,02,12,23,51.50
2010,04,02,12,24,56.30
2010,04,02,12,25,53.10
2010,04,02,12,26,53.10
2010,04,02,12,27,59.50
2010,04,02,12,28,53.10
2010,04,02,12,29,70.80
2010,04,02,12,30,49.90
2010,04,02,12,31,66.00
2010,04,02,12,32,43.50
2010,04,02,12,33,57.90
2010,04,02,12,34,41.80
2010,04,02,12,35,66.00
2010,04,02,12,36,64.40
2010,04,02,12,37,56.30
2010,04,02,12,38,62.70
2010,04,02,12,39,61.20
2010,04,02,12,40,62.70
2010,04,02,12,41,57.90
2010,04,02,12,42,54.70
2010,04,02,12,43,59.50
2010,04,02,12,44,57.90
2010,04,02,12,45,56.30
2010,04,02,12,46,66.00
2010,04,02,12,47,66.00
2010,04,02,12,48,56.30
2010,04,02,12,49,51.50
2010,04,02,12,50,46.70
2010,04,02,12,51,48.30
2010,04,02,12,52,48.30
2010,04,02,12,53,48.30
2010,04,02,12,54,57.90
2010,04,02,12,55,48.30
2010,04,02,12,56,46.70
2010,04,02,12,57,51.50
2010,04,02,12,58,48.30
2010,04,02,12,59,48.30
2010,04,02,13,00,56.30
2010,04,02,13,01,64.40
2010,04,02,13,02,57.90
2010,04,02,13,03,53.10
2010,04,02,13,04,46.70
2010,04,02,13,05,46.70
2010,04,02,13,06,45.10
2010,04,02,13,07,56.30
2010,04,02,13,08,43.50
2010,04,02,13,09,37.00
2010,04,02,13,10,48.30
2010,04,02,13,11,64.40
2010,04,02,13,12,64.40
2010,04,02,13,13,61.20
2010,04,02,13,14,41.80
2010,04,02,13,15,48.30
2010,04,02,13,16,37.00
2010,04,02,13,17,46.70
2010,04,02,13,18,41.80
2010,04,02,13,19,54.70
2010,04,02,13,20,51.50
2010,04,02,13,21,51.50
2010,04,02,13,22,64.40
2010,04,02,13,23,53.10
2010,04,02,13,24,49.90
2010,04,02,13,25,38.60
2010,04,02,13,26,46.70
2010,04,02,13,27,45.10
2010,04,02,13,28,41.80
2010,04,02,13,29,59.50
2010,04,02,13,30,41.80
2010,04,02,13,31,54.70
2010,04,02,13,32,43.50
2010,04,02,13,33,32.20
2010,04,02,13,34,49.90
2010,04,02,13,35,35.40
2010,04,02,13,36,38.60
2010,04,02,13,37,41.80
2010,04,02,13,38,33.80
2010,04,02,13,39,48.30
2010,04,02,13,40,51.50
2010,04,02,13,41,49.90
2010,04,02,13,42,56.30
2010,04,02,13,43,33.80
2010,04,02,13,44,30.60
2010,04,02,13,45,38.60
2010,04,02,13,46,48.30
2010,04,02,13,47,35.40
2010,04,02,13,48,37.00
2010,04,02,13,49,41.80
2010,04,02,13,50,29.00
2010,04,02,13,51,33.80
2010,04,02,13,52,46.70
2010,04,02,13,53,38.60
2010,04,02,13,54,41.80
2010,04,02,13,55,41.80
2010,04,02,13,56,29.00
2010,04,02,13,57,22.50
2010,04,02,13,58,24.20
2010,04,02,13,59,33.80
2010,04,02,14,00,41.80
2010,04,02,14,01,45.10
2010,04,02,14,02,37.00
2010,04,02,14,03,38.60
2010,04,02,14,04,35.40
2010,04,02,14,05,48.30
2010,04,02,14,06,40.20
2010,04,02,14,07,37.00
2010,04,02,14,08,27.40
2010,04,02,14,09,45.10
2010,04,02,14,10,32.20
2010,04,02,14,11,38.60
2010,04,02,14,12,35.40
2010,04,02,14,13,41.80
2010,04,02,14,14,38.60
2010,04,02,14,15,40.20
2010,04,02,14,16,33.80
2010,04,02,14,17,27.40
2010,04,02,14,18,38.60
2010,04,02,14,19,46.70
2010,04,02,14,20,43.50
2010,04,02,14,21,46.70
2010,04,02,14,22,38.60
2010,04,02,14,23,32.20
2010,04,02,14,24,40.20
2010,04,02,14,25,27.40
2010,04,02,14,26,27.40
2010,04,02,14,27,32.20
2010,04,02,14,28,37.00
2010,04,02,14,29,29.00
2010,04,02,14,30,38.60
2010,04,02,14,31,38.60
2010,04,02,14,32,27.40
2010,04,02,14,33,37.00
2010,04,02,14,34,37.00
2010,04,02,14,35,40.20
2010,04,02,14,36,29.00
2010,04,02,14,37,30.60
2010,04,02,14,38,43.50
2010,04,02,14,39,33.80
2010,04,02,14,40,32.20
2010,04,02,14,41,40.20
2010,04,02,14,42,43.50
2010,04,02,14,43,37.00
2010,04,02,14,44,29.00
2010,04,02,14,45,35.40
2010,04,02,14,46,40.20
2010,04,02,14,47,37.00
2010,04,02,14,48,35.40
2010,04,02,14,49,49.90
2010,04,02,14,50,33.80
2010,04,02,14,51,35.40
2010,04,02,14,52,41.80
2010,04,02,14,53,46.70
2010,04,02,14,54,38.60
2010,04,02,14,55,45.10
2010,04,02,14,56,43.50
2010,04,02,14,57,33.80
2010,04,02,14,58,40.20
2010,04,02,14,59,43.50
2010,04,02,15,00,48.30
2010,04,02,15,01,25.70
2010,04,02,15,02,20.90
2010,04,02,15,03,38.60
2010,04,02,15,04,20.90
2010,04,02,15,05,25.70
2010,04,02,15,06,19.30
2010,04,02,15,07,43.50
2010,04,02,15,08,33.80
2010,04,02,15,09,27.40
2010,04,02,15,10,53.10
2010,04,02,15,11,41.80
2010,04,02,15,12,30.60
2010,04,02,15,13,46.70
2010,04,02,15,14,45.10
2010,04,02,15,15,46.70
2010,04,02,15,16,35.40
2010,04,02,15,17,32.20
2010,04,02,15,18,29.00
2010,04,02,15,19,37.00
2010,04,02,15,20,51.50
2010,04,02,15,21,41.80
2010,04,02,15,22,37.00
2010,04,02,15,23,38.60
2010,04,02,15,24,38.60
2010,04,02,15,25,41.80
2010,04,02,15,26,37.00
2010,04,02,15,27,32.20
2010,04,02,15,28,38.60
2010,04,02,15,29,29.00
2010,04,02,15,30,27.40
2010,04,02,15,31,35.40
2010,04,02,15,32,29.00
2010,04,02,15,33,30.60
2010,04,02,15,34,27.40
2010,04,02,15,35,33.80
2010,04,02,15,36,30.60
2010,04,02,15,37,37.00
2010,04,02,15,38,30.60
2010,04,02,15,39,37.00
2010,04,02,15,40,32.20
2010,04,02,15,41,40.20
2010,04,02,15,42,46.70
2010,04,02,15,43,37.00
2010,04,02,15,44,19.30
2010,04,02,15,45,29.00
2010,04,02,15,46,35.40
2010,04,02,15,47,22.50
2010,04,02,15,48,29.00
2010,04,02,15,49,32.20
2010,04,02,15,50,38.60
2010,04,02,15,51,37.00
2010,04,02,15,52,30.60
2010,04,02,15,53,24.20
2010,04,02,15,54,40.20
2010,04,02,15,55,46.70
2010,04,02,15,56,29.00
2010,04,02,15,57,27.40
2010,04,02,15,58,27.40
2010,04,02,15,59,38.60
2010,04,02,16,00,38.60
2010,04,02,16,01,32.20
2010,04,02,16,02,40.20
2010,04,02,16,03,29.00
2010,04,02,16,04,24.20
2010,04,02,16,05,35.40
2010,04,02,16,06,24.20
2010,04,02,16,07,22.50
2010,04,02,16,08,22.50
2010,04,02,16,09,19.30
2010,04,02,16,10,38.60
2010,04,02,16,11,22.50
2010,04,02,16,12,19.30
2010,04,02,16,13,22.50
2010,04,02,16,14,22.50
2010,04,02,16,15,27.40
2010,04,02,16,16,25.70
2010,04,02,16,17,22.50
2010,04,02,16,18,30.60
2010,04,02,16,19,25.70
2010,04,02,16,20,25.70
2010,04,02,16,21,27.40
2010,04,02,16,22,33.80
2010,04,02,16,23,35.40
2010,04,02,16,24,30.60
2010,04,02,16,25,25.70
2010,04,02,16,26,27.40
2010,04,02,16,27,27.40
2010,04,02,16,28,24.20
2010,04,02,16,29,27.40
2010,04,02,16,30,20.90
2010,04,02,16,31,40.20
2010,04,02,16,32,41.80
2010,04,02,16,33,48.30
2010,04,02,16,34,41.80
2010,04,02,16,35,38.60
2010,04,02,16,36,25.70
2010,04,02,16,37,24.20
2010,04,02,16,38,29.00
2010,04,02,16,39,30.60
2010,04,02,16,40,25.70
2010,04,02,16,41,29.00
2010,04,02,16,42,48.30
2010,04,02,16,43,30.60
2010,04,02,16,44,19.30
2010,04,02,16,45,24.20
2010,04,02,16,46,22.50
2010,04,02,16,47,30.60
2010,04,02,16,48,35.40
2010,04,02,16,49,35.40
2010,04,02,16,50,24.20
2010,04,02,16,51,25.70
2010,04,02,16,52,30.60
2010,04,02,16,53,33.80
2010,04,02,16,54,22.50
2010,04,02,16,55,22.50
2010,04,02,16,56,37.00
2010,04,02,16,57,29.00
2010,04,02,16,58,37.00
2010,04,02,16,59,32.20
2010,04,02,17,00,25.70
2010,04,02,17,01,24.20
2010,04,02,17,02,24.20
2010,04,02,17,03,35.40
2010,04,02,17,04,38.60
2010,04,02,17,05,35.40
2010,04,02,17,06,35.40
2010,04,02,17,07,37.00
2010,04,02,17,08,20.90
2010,04,02,17,09,22.50
2010,04,02,17,10,20.90
2010,04,02,17,11,30.60
2010,04,02,17,12,27.40
2010,04,02,17,13,33.80
2010,04,02,17,14,27.40
2010,04,02,17,15,29.00
2010,04,02,17,16,19.30
2010,04,02,17,17,30.60
2010,04,02,17,18,22.50
2010,04,02,17,19,25.70